Weather in Sizov

Russia / Volgograd Oblast     48°08′33″N   42°17′05″E
temp.,
°C
wind,
m/s
gust,
m/s
humid.,
%
clouds,
%
prec.,
mm/h
press.,
hPa
HPBL,
m
6 august, fri
fri600:00+25e612377 0.0 1013288
03:00+23e41140100 0.0 1013284
06:00+23e411415 0.0 1014304
09:00+30ese782745 0.0 1013851
12:00+33ese772329 0.0 10121807
15:00+34ese662129 0.0 10112382
18:00+33ese662166 0.0 10102157
21:00+27e51229100 0.0 1009217
7 august, sat
sat700:00+27e71526100 0.0 1010409
03:00+26ese6162897 0.0 1009471
06:00+25e71530100 0.0 1010470
09:00+30ese81221100 0.0 1009849
12:00+34ese8917100 0.0 10081615
15:00+36ese8916100 0.0 10072320
18:00+35e791871 0.0 10071240
21:00+31e81622100 0.0 1007508
8 august, sun
sun800:00+29e71525100 0.0 1008420
03:00+28e51127100 0.0 1009297
06:00+26e51029100 0.0 1010296
09:00+30se5622100 0.0 1011746
12:00+30nne2323100 0.0 1010759
15:00+32nw3422100 0.0 1009191
18:00+31ne61223100 0.0 1008413
21:00+31e71222100 0.0 1009488
9 august, mon
mon900:00+27ese352765 0.0 1009128
03:00+24s123499 0.0 101025
06:00+24se2238100 0.0 101143
09:00+29sse332896 0.0 1011593
12:00+33ssw232785 0.0 10121483
15:00+36s122588 0.0 10112273
18:00+35s222651 0.0 10101708
21:00+26sse4653100 0.8 101295
10 august, tue
tue1000:00+26nnw466195 0.7 1012125
03:00+25nnw3460100 0.7 101189
06:00+24e1151100 0.2 101135
09:00+26s1245100 0.3 1011179
12:00+29ssw12417 0.0 1011630
15:00+34ssw34337 0.0 10092396
18:00+33sw243036 0.0 10082522
21:00+28sw49405 0.0 1009179